Starlink 5076

operational
NORAD ID: 55401 Int'l Des: 2023-014 Owner: SPXS Country: US Constellation: starlink
LEOCIRCULAR

About Starlink 5076

Description loading...

Live Position

Loading 3D Globe...

Upcoming Passes

Altitude History

Altitude vs Time

uPlot chart will show altitude changes over time

Two-Line Element Set

1 55401U 23014L 25302.55089221 .00000415 00000-0 42538-4 0 9995
2 55401 70.0009 35.0427 0003083 270.6633 89.4173 14.98334190152412
Epoch: Oct 29, 2025 • Age: 11 hours

Current Status

Altitude 594.1 km
Velocity 7.56 km/s
Sub-Earth Point -64.92°S, 133.49°W
Launch Date Jan 31, 2023
Age 2.7 years
Type internet

Technical Details

Classification Payload
Mass 305.00 kg
Dry Mass 290.00 kg
Total Mass 305.00 kg
Length 0.20 m
Diameter 2.80 m
Span 9.00 m
Shape Box + pan
Manufacturer SPXS
Bus Type Starlink
Phase Status In Orbit
Owner/State SPXS/US

Large Constellations

Loading constellations...